Location: Zagreb
(45.8000°N, 16.0000°E)
Time: 20:32:48
(UTC+01:00)

Oscar 11 - Pass Details

Date: 07 November 2020
Orbit: 613 x 625 km, 97.6° (Epoch: 01 December)

Event Time Altitude Azimuth Distance (km) Brightness Sun altitude
Rises 05:46:02 0° 20° (NNE) 2,891 10.6 -10.6°
Reaches altitude 10° 05:48:21 10° 28° (NNE) 1,982 9.9 -10.2°
Maximum altitude 05:52:22 37° 97° (E) 953 8.8 -9.5°
Drops below altitude 10° 05:56:22 10° 166° (SSE) 1,970 10.0 -8.9°
Sets 05:58:40 0° 174° (S) 2,872 10.8 -8.5°
